Location: Marcé
(47.5801°N, 0.3280°W)
Time: 11:14:52
(UTC+01:00)

deb Explorer IX - Pass Details

Date: 07 December 2021
Orbit: 544 x 1082 km, 38.8° (Epoch: 17 January)

Event Time Altitude Azimuth Distance (km) Brightness Sun altitude
Rises 11:37:37 0° 247° (WSW) 3,100 ? 17.8°
Reaches altitude 10° 11:40:26 10° 235° (SW) 2,088 ? 17.9°
Maximum altitude 11:44:26 27° 179° (S) 1,193 ? 18.1°
Drops below altitude 10° 11:48:04 10° 121° (ESE) 1,885 ? 18.3°
Sets 11:50:29 0° 108° (ESE) 2,739 ? 18.4°
